When you browse on this site, cookies collect data to enhance your experience and personalize the content and advertising you see.
Visit our Privacy Policy to learn more. By continuing to use the site, you agree to this use of cookies and data.
  • In Italy
  • List of Countries
  • For 7 days
  • Water Temperature
  • Satellite Maps
  • Weather Map
  • Weather Widgets
  • user-avatar
    Login

    Hourly Weather Kandi

    Today, 18 June, Tuesday

    Time Temperature Precipitation Wind Pressure Humidity
    00:00 +30°C° 0 mm 2 mps 738 mmHg 65%
    01:00 +30°C° 0 mm 3 mps 738 mmHg 68%
    02:00 +29°C° 0 mm 3 mps 738 mmHg 72%
    03:00 +29°C° 0 mm 3 mps 737 mmHg 75%
    04:00 +28°C° 0 mm 3 mps 737 mmHg 76%
    05:00 +28°C° 0 mm 3 mps 738 mmHg 78%
    06:00 +28°C° 0 mm 3 mps 738 mmHg 79%
    07:00 +29°C° 0 mm 3 mps 738 mmHg 73%
    08:00 +31°C° 0 mm 3 mps 739 mmHg 68%
    09:00 +34°C° 0 mm 3 mps 739 mmHg 62%
    10:00 +36°C° 0 mm 3 mps 739 mmHg 53%
    11:00 +38°C° 0 mm 2 mps 738 mmHg 44%
    12:00 +40°C° 0 mm 2 mps 738 mmHg 36%
    13:00 +40°C° 0 mm 2 mps 737 mmHg 33%
    14:00 +41°C° 0 mm 2 mps 737 mmHg 31%
    15:00 +41°C° 0 mm 2 mps 736 mmHg 28%
    16:00 +40°C° 0 mm 2 mps 736 mmHg 31%
    17:00 +39°C° 0 mm 2 mps 736 mmHg 34%
    18:00 +36°C° 0 mm 1 mps 736 mmHg 37%
    19:00 +36°C° 0 mm 2 mps 737 mmHg 42%
    20:00 +35°C° 0 mm 2 mps 737 mmHg 47%
    21:00 +34°C° 0 mm 3 mps 738 mmHg 52%
    22:00 +33°C° 0.1 mm 3 mps 738 mmHg 57%
    23:00 +31°C° 0.1 mm 3 mps 739 mmHg 61%

    Tomorrow, 19 June, Wednesday

    Time Temperature Precipitation Wind Pressure Humidity
    00:00 +30°C° 0.1 mm 3 mps 739 mmHg 66%
    01:00 +30°C° 1.9 mm 4 mps 738 mmHg 71%
    02:00 +29°C° 1.9 mm 4 mps 738 mmHg 77%
    03:00 +28°C° 1.9 mm 4 mps 738 mmHg 83%
    04:00 +28°C° 0 mm 4 mps 738 mmHg 82%
    05:00 +28°C° 0 mm 4 mps 737 mmHg 82%
    06:00 +28°C° 0 mm 4 mps 737 mmHg 81%
    07:00 +29°C° 0 mm 3 mps 738 mmHg 74%
    08:00 +31°C° 0 mm 3 mps 738 mmHg 67%
    09:00 +34°C° 0 mm 3 mps 738 mmHg 60%
    10:00 +36°C° 0 mm 2 mps 738 mmHg 51%
    11:00 +39°C° 0 mm 2 mps 738 mmHg 43%
    12:00 +41°C° 0 mm 2 mps 737 mmHg 34%
    13:00 +42°C° 0 mm 1 mps 737 mmHg 32%
    14:00 +42°C° 0 mm 1 mps 736 mmHg 29%
    15:00 +43°C° 0 mm 1 mps 736 mmHg 27%
    16:00 +41°C° 0 mm 1 mps 736 mmHg 31%
    17:00 +39°C° 0 mm 1 mps 736 mmHg 36%
    18:00 +37°C° 0 mm 1 mps 736 mmHg 40%
    19:00 +36°C° 0.1 mm 2 mps 737 mmHg 47%
    20:00 +34°C° 0.1 mm 3 mps 737 mmHg 54%
    21:00 +33°C° 0.1 mm 3 mps 737 mmHg 61%
    22:00 +31°C° 0 mm 3 mps 738 mmHg 63%
    23:00 +31°C° 0 mm 3 mps 738 mmHg 65%

    Day after tomorrow, 20 June, Thursday

    Time Temperature Precipitation Wind Pressure Humidity
    00:00 +30°C° 0 mm 3 mps 738 mmHg 67%
    01:00 +30°C° 0 mm 3 mps 737 mmHg 69%
    02:00 +29°C° 0 mm 3 mps 737 mmHg 71%
    03:00 +29°C° 0 mm 4 mps 737 mmHg 72%
    04:00 +29°C° 0 mm 3 mps 737 mmHg 74%
    05:00 +28°C° 0 mm 3 mps 737 mmHg 75%
    06:00 +28°C° 0 mm 3 mps 737 mmHg 76%
    07:00 +30°C° 0 mm 3 mps 738 mmHg 70%
    08:00 +31°C° 0 mm 3 mps 738 mmHg 65%
    09:00 +34°C° 0 mm 4 mps 739 mmHg 59%
    10:00 +36°C° 0 mm 3 mps 738 mmHg 54%
    11:00 +37°C° 0 mm 3 mps 738 mmHg 48%
    12:00 +39°C° 0 mm 3 mps 738 mmHg 43%
    13:00 +39°C° 0 mm 3 mps 737 mmHg 43%
    14:00 +39°C° 0 mm 3 mps 737 mmHg 42%
    15:00 +39°C° 0 mm 3 mps 736 mmHg 42%
    16:00 +38°C° 0 mm 3 mps 736 mmHg 46%
    17:00 +37°C° 0 mm 3 mps 736 mmHg 50%
    18:00 +35°C° 0 mm 3 mps 736 mmHg 55%
    19:00 +34°C° 0.2 mm 3 mps 737 mmHg 60%
    20:00 +33°C° 0.2 mm 3 mps 737 mmHg 65%
    21:00 +31°C° 0.2 mm 3 mps 738 mmHg 70%
    22:00 +31°C° 0.1 mm 3 mps 738 mmHg 71%
    23:00 +30°C° 0.1 mm 3 mps 738 mmHg 72%

    21 June, Friday

    Time Temperature Precipitation Wind Pressure Humidity
    00:00 +30°C° 0.1 mm 3 mps 738 mmHg 73%
    01:00 +29°C° 0.2 mm 3 mps 738 mmHg 76%
    02:00 +29°C° 0.2 mm 3 mps 738 mmHg 78%
    03:00 +28°C° 0.2 mm 4 mps 737 mmHg 81%
    04:00 +27°C° 2.2 mm 4 mps 738 mmHg 83%
    05:00 +27°C° 2.2 mm 4 mps 739 mmHg 86%
    06:00 +26°C° 2.2 mm 4 mps 739 mmHg 89%
    07:00 +26°C° 3.6 mm 4 mps 740 mmHg 88%
    08:00 +25°C° 3.6 mm 5 mps 740 mmHg 87%
    09:00 +25°C° 3.6 mm 5 mps 740 mmHg 86%
    10:00 +26°C° 0 mm 4 mps 740 mmHg 80%
    11:00 +27°C° 0 mm 3 mps 739 mmHg 75%
    12:00 +27°C° 0 mm 3 mps 739 mmHg 70%
    13:00 +29°C° 0 mm 3 mps 738 mmHg 65%
    14:00 +30°C° 0 mm 3 mps 737 mmHg 60%
    15:00 +31°C° 0 mm 3 mps 736 mmHg 55%
    16:00 +31°C° 0 mm 2 mps 736 mmHg 57%
    17:00 +30°C° 0 mm 1 mps 736 mmHg 60%
    18:00 +27°C° 0 mm 0 mps 737 mmHg 63%
    19:00 +29°C° 0 mm 1 mps 737 mmHg 65%
    20:00 +28°C° 0 mm 1 mps 738 mmHg 67%
    21:00 +27°C° 0 mm 1 mps 738 mmHg 69%
    22:00 +27°C° 0 mm 1 mps 738 mmHg 72%
    23:00 +27°C° 0 mm 1 mps 738 mmHg 74%

    22 June, Saturday

    Time Temperature Precipitation Wind Pressure Humidity
    00:00 +26°C° 0 mm 1 mps 739 mmHg 77%
    01:00 +26°C° 0 mm 1 mps 738 mmHg 79%
    02:00 +26°C° 0 mm 1 mps 738 mmHg 80%
    03:00 +26°C° 0 mm 1 mps 738 mmHg 82%
    04:00 +26°C° 0 mm 1 mps 738 mmHg 83%
    05:00 +26°C° 0 mm 2 mps 738 mmHg 85%
    06:00 +26°C° 0 mm 2 mps 738 mmHg 86%
    07:00 +28°C° 0 mm 3 mps 739 mmHg 79%
    08:00 +30°C° 0 mm 3 mps 739 mmHg 72%
    09:00 +32°C° 0 mm 4 mps 739 mmHg 66%
    10:00 +34°C° 0 mm 3 mps 739 mmHg 60%
    11:00 +36°C° 0 mm 3 mps 738 mmHg 55%
    12:00 +37°C° 0 mm 3 mps 738 mmHg 49%
    13:00 +37°C° 0 mm 2 mps 737 mmHg 48%
    14:00 +38°C° 0 mm 2 mps 736 mmHg 46%
    15:00 +38°C° 0 mm 2 mps 736 mmHg 45%
    16:00 +37°C° 0 mm 2 mps 736 mmHg 50%
    17:00 +36°C° 0 mm 2 mps 736 mmHg 55%
    18:00 +34°C° 0 mm 2 mps 736 mmHg 60%
    19:00 +32°C° 0.1 mm 2 mps 736 mmHg 64%
    20:00 +31°C° 0.1 mm 1 mps 737 mmHg 69%
    21:00 +31°C° 0.1 mm 1 mps 737 mmHg 73%
    22:00 +30°C° 0 mm 2 mps 737 mmHg 74%
    23:00 +30°C° 0 mm 2 mps 737 mmHg 76%

    23 June, Sunday

    Time Temperature Precipitation Wind Pressure Humidity
    00:00 +29°C° 0 mm 2 mps 737 mmHg 77%
    01:00 +29°C° 0 mm 3 mps 737 mmHg 78%
    02:00 +28°C° 0 mm 3 mps 737 mmHg 79%
    03:00 +28°C° 0 mm 3 mps 737 mmHg 81%
    04:00 +28°C° 0 mm 3 mps 737 mmHg 82%
    05:00 +27°C° 0 mm 3 mps 737 mmHg 83%
    06:00 +27°C° 0 mm 2 mps 738 mmHg 84%
    07:00 +29°C° 0 mm 3 mps 738 mmHg 77%
    08:00 +30°C° 0 mm 3 mps 738 mmHg 70%
    09:00 +33°C° 0 mm 3 mps 738 mmHg 63%
    10:00 +35°C° 0 mm 3 mps 738 mmHg 57%
    11:00 +36°C° 0 mm 3 mps 737 mmHg 51%
    12:00 +38°C° 0 mm 3 mps 737 mmHg 46%
    13:00 +39°C° 0 mm 3 mps 736 mmHg 41%
    14:00 +40°C° 0 mm 2 mps 735 mmHg 37%
    15:00 +41°C° 0 mm 2 mps 735 mmHg 33%
    16:00 +39°C° 0 mm 2 mps 735 mmHg 37%
    17:00 +36°C° 0 mm 1 mps 735 mmHg 42%
    18:00 +35°C° 0 mm 1 mps 735 mmHg 47%
    19:00 +34°C° 0 mm 1 mps 735 mmHg 52%
    20:00 +34°C° 0 mm 2 mps 736 mmHg 56%
    21:00 +32°C° 0 mm 2 mps 736 mmHg 61%
    22:00 +31°C° 0 mm 2 mps 736 mmHg 63%
    23:00 +31°C° 0 mm 3 mps 736 mmHg 65%
    Show more